START_TIME,STEP,MOV.,AL01,t_acc.,AL02,t_acc.,E37,t_acc.,H21,t_acc.
1986-01-26 18:00:35.570 ,1,0,0.,24.0,0.,24.0,0.,24.0,0.,24.0
1986-01-26 18:00:59.570 ,2,1,0.,24.0,0.,24.0,0.,24.0,0.,24.0
1986-01-26 18:01:23.570 ,2,0,0.,24.0,0.,24.0,0.,24.0,0.,24.0
1986-01-26 18:01:47.570 ,3,1,0.,24.0,0.,24.0,0.,24.0,0.,24.0
1986-01-26 18:02:11.570 ,3,0,0.,24.0,0.,24.0,0.,24.0,0.,24.0
1986-01-26 18:02:35.570 ,4,1,0.,24.0,0.,24.0,0.,24.0,0.,24.0
1986-01-26 18:02:59.570 ,4,0,0.,24.0,0.,24.0,0.,24.0,0.,24.0
1986-01-26 18:03:23.570 ,5,1,0.,24.0,0.,24.0,0.,24.0,0.,24.0
1986-01-26 18:03:47.570 ,5,0,0.,24.0,0.,24.0,0.,24.0,0.,24.0
1986-01-26 18:04:11.570 ,6,1,0.,24.0,0.,24.0,0.,24.0,0.,24.0
1986-01-26 18:04:35.570 ,6,0,0.,24.0,0.,24.0,0.,24.0,0.,24.0
1986-01-26 18:04:59.570 ,7,1,9.,24.0,0.,24.0,0.,24.0,0.,24.0
1986-01-26 18:05:23.570 ,7,0,33.,24.0,0.,24.0,0.,24.0,0.,24.0
1986-01-26 18:05:47.570 ,7,1,27.,24.0,0.,24.0,0.,24.0,0.,24.0
1986-01-26 18:06:11.570 ,7,0,32.,24.0,0.,24.0,0.,24.0,0.,24.0
1986-01-26 18:06:35.570 ,6,1,27.,24.0,0.,24.0,0.,24.0,0.,24.0
1986-01-26 18:06:59.570 ,6,0,0.,24.0,0.,24.0,0.,24.0,0.,24.0
1986-01-26 18:07:23.570 ,5,1,0.,24.0,0.,24.0,0.,24.0,0.,24.0
1986-01-26 18:07:47.570 ,5,0,0.,24.0,0.,24.0,0.,24.0,0.,24.0
1986-01-26 18:08:11.570 ,4,1,0.,24.0,0.,24.0,0.,24.0,0.,24.0
1986-01-26 18:08:35.570 ,4,0,0.,24.0,0.,24.0,0.,24.0,0.,24.0
1986-01-26 18:08:59.570 ,3,1,0.,24.0,0.,24.0,0.,24.0,0.,24.0
1986-01-26 18:09:23.570 ,3,0,0.,24.0,0.,24.0,0.,24.0,0.,24.0
1986-01-26 18:09:47.570 ,2,1,0.,24.0,0.,24.0,0.,24.0,0.,24.0
1986-01-26 18:10:11.570 ,2,0,0.,24.0,0.,24.0,0.,24.0,0.,24.0
1986-01-26 18:10:35.570 ,1,1,0.,24.0,0.,24.0,0.,24.0,0.,24.0
1986-01-26 18:10:59.570 ,1,0,0.,24.0,0.,24.0,0.,24.0,0.,24.0
1986-01-26 18:11:23.570 ,0,1,0.,24.0,0.,24.0,0.,24.0,0.,24.0
1986-01-26 18:11:47.570 ,0,0,0.,24.0,0.,24.0,0.,24.0,0.,24.0
1986-01-26 18:12:11.570 ,0,1,0.,24.0,0.,24.0,0.,24.0,0.,24.0
1986-01-26 18:12:35.570 ,0,0,0.,24.0,0.,24.0,0.,24.0,0.,24.0
1986-01-26 18:12:59.570 ,1,1,0.,24.0,0.,24.0,0.,24.0,0.,24.0
1986-01-26 18:13:23.570 ,1,0,0.,24.0,0.,24.0,0.,24.0,0.,24.0
1986-01-26 18:13:47.570 ,2,1,0.,24.0,0.,24.0,0.,24.0,0.,24.0
1986-01-26 18:14:11.570 ,2,0,0.,24.0,0.,24.0,0.,24.0,0.,24.0
1986-01-26 18:14:35.570 ,3,1,0.,24.0,0.,24.0,0.,24.0,0.,24.0
1986-01-26 18:14:59.570 ,3,0,0.,24.0,0.,24.0,0.,24.0,0.,24.0
1986-01-26 18:15:23.570 ,4,1,0.,24.0,0.,24.0,0.,24.0,0.,24.0
1986-01-26 18:15:47.570 ,4,0,0.,24.0,0.,24.0,0.,24.0,0.,24.0
1986-01-26 18:16:11.570 ,5,1,0.,24.0,0.,24.0,0.,24.0,0.,24.0
1986-01-26 18:16:35.570 ,5,0,0.,24.0,0.,24.0,0.,24.0,0.,24.0
1986-01-26 18:16:59.570 ,6,1,0.,24.0,0.,24.0,0.,24.0,0.,24.0
1986-01-26 18:17:23.570 ,6,0,0.,24.0,0.,24.0,0.,24.0,0.,24.0
1986-01-26 18:17:47.570 ,7,1,9.,24.0,0.,24.0,0.,24.0,0.,24.0
1986-01-26 18:18:11.570 ,7,0,28.,24.0,0.,24.0,0.,24.0,0.,24.0
1986-01-26 18:18:35.570 ,7,1,33.,24.0,0.,24.0,0.,24.0,0.,24.0
1986-01-26 18:18:59.570 ,7,0,23.,24.0,0.,24.0,0.,24.0,0.,24.0
1986-01-26 18:19:23.570 ,6,1,25.,24.0,0.,24.0,0.,24.0,0.,24.0
1986-01-26 18:19:47.570 ,6,0,0.,24.0,0.,24.0,0.,24.0,0.,24.0
1986-01-26 18:20:11.570 ,5,1,0.,24.0,0.,24.0,0.,24.0,0.,24.0
1986-01-26 18:20:35.570 ,5,0,0.,24.0,0.,24.0,0.,24.0,0.,24.0
1986-01-26 18:20:59.570 ,4,1,0.,24.0,0.,24.0,0.,24.0,0.,24.0
1986-01-26 18:21:23.570 ,4,0,0.,24.0,0.,24.0,0.,24.0,0.,24.0
1986-01-26 18:21:47.570 ,3,1,0.,24.0,0.,24.0,0.,24.0,0.,24.0
1986-01-26 18:22:11.570 ,3,0,0.,24.0,0.,24.0,0.,24.0,0.,24.0
1986-01-26 18:22:35.570 ,2,1,0.,24.0,0.,24.0,0.,24.0,0.,24.0
1986-01-26 18:22:59.570 ,2,0,0.,24.0,0.,24.0,0.,24.0,0.,24.0
1986-01-26 18:23:23.570 ,1,1,0.,24.0,0.,24.0,0.,24.0,0.,24.0
1986-01-26 18:23:47.570 ,1,0,0.,24.0,0.,24.0,0.,24.0,0.,24.0
1986-01-26 18:24:11.570 ,0,1,0.,24.0,0.,24.0,0.,24.0,0.,24.0
1986-01-26 18:24:35.570 ,0,0,0.,24.0,0.,24.0,0.,24.0,0.,24.0
1986-01-26 18:24:59.570 ,0,1,0.,24.0,0.,24.0,0.,24.0,0.,24.0
1986-01-26 18:25:23.570 ,0,0,0.,24.0,0.,24.0,0.,24.0,0.,24.0
1986-01-26 18:25:47.570 ,1,1,0.,24.0,0.,24.0,0.,24.0,0.,24.0
1986-01-26 18:26:11.570 ,1,0,0.,24.0,0.,24.0,0.,24.0,0.,24.0
1986-01-26 18:26:35.570 ,2,1,0.,24.0,0.,24.0,0.,24.0,0.,24.0
1986-01-26 18:26:59.570 ,2,0,0.,24.0,0.,24.0,0.,24.0,0.,24.0
1986-01-26 18:27:23.570 ,3,1,0.,24.0,0.,24.0,0.,24.0,0.,24.0
1986-01-26 18:27:47.570 ,3,0,0.,24.0,0.,24.0,0.,24.0,0.,24.0
1986-01-26 18:28:11.570 ,4,1,0.,24.0,0.,24.0,0.,24.0,0.,24.0
1986-01-26 18:28:35.570 ,4,0,0.,24.0,0.,24.0,0.,24.0,0.,24.0
1986-01-26 18:28:59.570 ,5,1,0.,24.0,0.,24.0,0.,24.0,0.,24.0
1986-01-26 18:29:23.570 ,5,0,0.,24.0,0.,24.0,0.,24.0,0.,24.0
1986-01-26 18:29:47.570 ,6,1,0.,24.0,0.,24.0,0.,24.0,0.,24.0
1986-01-26 18:30:11.570 ,6,0,0.,24.0,0.,24.0,0.,24.0,0.,24.0
1986-01-26 18:30:35.570 ,7,1,5.,24.0,0.,24.0,0.,24.0,0.,24.0
1986-01-26 18:30:59.570 ,7,0,22.,24.0,0.,24.0,0.,24.0,0.,24.0
1986-01-26 18:31:23.570 ,7,1,35.,24.0,0.,24.0,0.,24.0,0.,24.0
1986-01-26 18:31:47.570 ,7,0,29.,24.0,0.,24.0,0.,24.0,0.,24.0
1986-01-26 18:32:11.570 ,6,1,31.,24.0,1.,24.0,0.,24.0,0.,24.0
1986-01-26 18:32:35.570 ,6,0,0.,24.0,0.,24.0,0.,24.0,0.,24.0
1986-01-26 18:32:59.570 ,5,1,0.,24.0,0.,24.0,0.,24.0,0.,24.0
1986-01-26 18:33:23.570 ,5,0,0.,24.0,0.,24.0,0.,24.0,0.,24.0
1986-01-26 18:33:47.570 ,4,1,0.,24.0,0.,24.0,0.,24.0,0.,24.0
1986-01-26 18:34:11.570 ,4,0,0.,24.0,0.,24.0,0.,24.0,0.,24.0
1986-01-26 18:34:35.570 ,3,1,0.,24.0,0.,24.0,0.,24.0,0.,24.0
1986-01-26 18:34:59.570 ,3,0,0.,24.0,0.,24.0,0.,24.0,0.,24.0
1986-01-26 18:35:23.570 ,2,1,0.,24.0,1.,24.0,0.,24.0,0.,24.0
1986-01-26 18:35:47.570 ,2,0,0.,24.0,0.,24.0,0.,24.0,0.,24.0
1986-01-26 18:36:11.570 ,1,1,0.,24.0,0.,24.0,0.,24.0,0.,24.0
1986-01-26 18:36:35.570 ,1,0,0.,24.0,1.,24.0,0.,24.0,0.,24.0
1986-01-26 18:36:59.570 ,0,1,0.,24.0,0.,24.0,0.,24.0,0.,24.0
1986-01-26 18:37:23.570 ,0,0,0.,24.0,0.,24.0,0.,24.0,0.,24.0
1986-01-26 18:37:47.570 ,0,1,0.,24.0,0.,24.0,0.,24.0,0.,24.0
1986-01-26 18:38:11.570 ,0,0,0.,24.0,0.,24.0,0.,24.0,0.,24.0
1986-01-26 18:38:35.570 ,1,1,0.,24.0,0.,24.0,0.,24.0,0.,24.0
1986-01-26 18:38:59.570 ,1,0,0.,24.0,0.,24.0,0.,24.0,0.,24.0
1986-01-26 18:39:23.570 ,2,1,0.,24.0,0.,24.0,0.,24.0,0.,24.0
1986-01-26 18:39:47.570 ,2,0,0.,24.0,0.,24.0,0.,24.0,0.,24.0
1986-01-26 18:40:11.570 ,3,1,0.,24.0,0.,24.0,0.,24.0,0.,24.0
1986-01-26 18:40:35.570 ,3,0,1.,24.0,0.,24.0,0.,24.0,0.,24.0
1986-01-26 18:40:59.570 ,4,1,0.,24.0,0.,24.0,0.,24.0,0.,24.0
1986-01-26 18:41:23.570 ,4,0,0.,24.0,0.,24.0,0.,24.0,0.,24.0
1986-01-26 18:41:47.570 ,5,1,0.,24.0,0.,24.0,0.,24.0,0.,24.0
1986-01-26 18:42:11.570 ,5,0,0.,24.0,0.,24.0,0.,24.0,0.,24.0
1986-01-26 18:42:35.570 ,6,1,0.,24.0,0.,24.0,0.,24.0,0.,24.0
1986-01-26 18:42:59.570 ,6,0,0.,24.0,0.,24.0,0.,24.0,0.,24.0
1986-01-26 18:43:23.570 ,7,1,7.,24.0,0.,24.0,0.,24.0,0.,24.0
1986-01-26 18:43:47.570 ,7,0,31.,24.0,0.,24.0,0.,24.0,0.,24.0
1986-01-26 18:44:11.570 ,7,1,20.,24.0,0.,24.0,0.,24.0,0.,24.0
1986-01-26 18:44:35.570 ,7,0,15.,24.0,0.,24.0,0.,24.0,0.,24.0
1986-01-26 18:44:59.570 ,6,1,19.,24.0,0.,24.0,0.,24.0,0.,24.0
1986-01-26 18:45:23.570 ,6,0,0.,24.0,0.,24.0,0.,24.0,0.,24.0
1986-01-26 18:45:47.570 ,5,1,0.,24.0,0.,24.0,0.,24.0,0.,24.0
1986-01-26 18:46:11.570 ,5,0,0.,24.0,0.,24.0,0.,24.0,0.,24.0
1986-01-26 18:46:35.570 ,4,1,0.,24.0,0.,24.0,0.,24.0,0.,24.0
1986-01-26 18:46:59.570 ,4,0,0.,24.0,0.,24.0,0.,24.0,0.,24.0
1986-01-26 18:47:23.570 ,3,1,0.,24.0,0.,24.0,0.,24.0,0.,24.0
1986-01-26 18:47:47.570 ,3,0,1.,24.0,0.,24.0,0.,24.0,0.,24.0
1986-01-26 18:48:11.570 ,2,1,0.,24.0,0.,24.0,0.,24.0,0.,24.0
1986-01-26 18:48:35.570 ,2,0,0.,24.0,0.,24.0,0.,24.0,0.,24.0
1986-01-26 18:48:59.570 ,1,1,0.,24.0,0.,24.0,0.,24.0,0.,24.0
1986-01-26 18:49:23.570 ,1,0,0.,24.0,0.,24.0,0.,24.0,0.,24.0
1986-01-26 18:49:47.570 ,0,1,1.,24.0,0.,24.0,0.,24.0,0.,24.0
1986-01-26 18:50:11.570 ,0,0,0.,24.0,0.,24.0,0.,24.0,0.,24.0
1986-01-26 18:50:35.570 ,0,1,0.,24.0,0.,24.0,0.,24.0,0.,24.0
1986-01-26 18:50:59.570 ,0,0,0.,24.0,0.,24.0,0.,24.0,0.,24.0
1986-01-26 18:51:23.570 ,1,1,0.,24.0,0.,24.0,0.,24.0,0.,24.0
1986-01-26 18:51:47.570 ,1,0,0.,24.0,0.,24.0,0.,24.0,0.,24.0
1986-01-26 18:52:11.570 ,2,1,0.,24.0,0.,24.0,0.,24.0,0.,24.0
1986-01-26 18:52:35.570 ,2,0,0.,24.0,0.,24.0,0.,24.0,0.,24.0
1986-01-26 18:52:59.570 ,3,1,0.,24.0,1.,24.0,0.,24.0,0.,24.0
1986-01-26 18:53:23.570 ,3,0,0.,24.0,0.,24.0,0.,24.0,0.,24.0
1986-01-26 18:53:47.570 ,4,1,0.,24.0,0.,24.0,0.,24.0,0.,24.0
1986-01-26 18:54:11.570 ,4,0,0.,24.0,0.,24.0,0.,24.0,0.,24.0
1986-01-26 18:54:35.570 ,5,1,0.,24.0,0.,24.0,0.,24.0,0.,24.0
1986-01-26 18:54:59.570 ,5,0,0.,24.0,0.,24.0,0.,24.0,0.,24.0
1986-01-26 18:55:23.570 ,6,1,0.,24.0,0.,24.0,0.,24.0,0.,24.0
1986-01-26 18:55:47.570 ,6,0,0.,24.0,0.,24.0,0.,24.0,0.,24.0
1986-01-26 18:56:11.570 ,7,1,6.,24.0,0.,24.0,0.,24.0,0.,24.0
1986-01-26 18:56:35.570 ,7,0,23.,24.0,0.,24.0,0.,24.0,0.,24.0
1986-01-26 18:56:59.570 ,7,1,27.,24.0,0.,24.0,0.,24.0,0.,24.0
1986-01-26 18:57:23.570 ,7,0,36.,24.0,0.,24.0,0.,24.0,0.,24.0
1986-01-26 18:57:47.570 ,6,1,12.,24.0,0.,24.0,0.,24.0,0.,24.0
1986-01-26 18:58:11.570 ,6,0,0.,24.0,0.,24.0,0.,24.0,0.,24.0
1986-01-26 18:58:35.570 ,5,1,0.,24.0,0.,24.0,0.,24.0,0.,24.0
1986-01-26 18:58:59.570 ,5,0,0.,24.0,0.,24.0,0.,24.0,0.,24.0
1986-01-26 18:59:23.570 ,4,1,0.,24.0,0.,24.0,0.,24.0,0.,24.0
1986-01-26 18:59:47.570 ,4,0,0.,24.0,0.,24.0,0.,24.0,0.,24.0
1986-01-26 19:00:11.570 ,3,1,0.,24.0,0.,24.0,0.,24.0,0.,24.0
1986-01-26 19:00:35.570 ,3,0,0.,24.0,0.,24.0,0.,24.0,0.,24.0
1986-01-26 19:00:59.570 ,2,1,0.,24.0,0.,24.0,0.,24.0,0.,24.0
1986-01-26 19:01:23.570 ,2,0,0.,24.0,1.,24.0,0.,24.0,0.,24.0
1986-01-26 19:01:47.570 ,1,1,0.,24.0,0.,24.0,0.,24.0,0.,24.0
1986-01-26 19:02:11.570 ,1,0,0.,24.0,0.,24.0,0.,24.0,0.,24.0
1986-01-26 19:02:35.570 ,0,1,0.,24.0,0.,24.0,0.,24.0,0.,24.0
1986-01-26 19:02:59.570 ,0,0,0.,24.0,0.,24.0,0.,24.0,0.,24.0
1986-01-26 19:03:23.570 ,0,1,0.,24.0,0.,24.0,0.,24.0,0.,24.0
1986-01-26 19:03:47.570 ,0,0,0.,24.0,0.,24.0,0.,24.0,0.,24.0
1986-01-26 19:04:11.570 ,1,1,0.,24.0,0.,24.0,0.,24.0,0.,24.0
1986-01-26 19:04:35.570 ,1,0,0.,24.0,0.,24.0,0.,24.0,0.,24.0
1986-01-26 19:04:59.570 ,2,1,0.,24.0,0.,24.0,0.,24.0,0.,24.0
1986-01-26 19:05:23.570 ,2,0,0.,24.0,0.,24.0,0.,24.0,0.,24.0
1986-01-26 19:05:47.570 ,3,1,0.,24.0,0.,24.0,0.,24.0,0.,24.0
1986-01-26 19:06:11.570 ,3,0,0.,24.0,0.,24.0,0.,24.0,0.,24.0
1986-01-26 19:06:35.570 ,4,1,0.,24.0,0.,24.0,0.,24.0,0.,24.0
1986-01-26 19:06:59.570 ,4,0,0.,24.0,0.,24.0,0.,24.0,0.,24.0
1986-01-26 19:07:23.570 ,5,1,0.,24.0,0.,24.0,0.,24.0,0.,24.0
1986-01-26 19:07:47.570 ,5,0,0.,24.0,1.,24.0,0.,24.0,0.,24.0
1986-01-26 19:08:11.570 ,6,1,0.,24.0,0.,24.0,0.,24.0,0.,24.0
1986-01-26 19:08:35.570 ,6,0,0.,24.0,0.,24.0,0.,24.0,0.,24.0
1986-01-26 19:08:59.570 ,7,1,7.,24.0,0.,24.0,0.,24.0,0.,24.0
1986-01-26 19:09:23.570 ,7,0,27.,24.0,0.,24.0,0.,24.0,0.,24.0
1986-01-26 19:09:47.570 ,7,1,22.,24.0,0.,24.0,0.,24.0,0.,24.0
1986-01-26 19:10:11.570 ,7,0,37.,24.0,0.,24.0,0.,24.0,0.,24.0
1986-01-26 19:10:35.570 ,6,1,27.,24.0,0.,24.0,0.,24.0,0.,24.0
1986-01-26 19:10:59.570 ,6,0,0.,24.0,0.,24.0,0.,24.0,0.,24.0
1986-01-26 19:11:23.570 ,5,1,0.,24.0,0.,24.0,0.,24.0,0.,24.0
1986-01-26 19:11:47.570 ,5,0,0.,24.0,0.,24.0,0.,24.0,0.,24.0
1986-01-26 19:12:11.570 ,4,1,0.,24.0,0.,24.0,0.,24.0,0.,24.0
1986-01-26 19:12:35.570 ,4,0,0.,24.0,0.,24.0,0.,24.0,0.,24.0
1986-01-26 19:12:59.570 ,3,1,0.,24.0,0.,24.0,0.,24.0,0.,24.0
1986-01-26 19:13:23.570 ,3,0,0.,24.0,1.,24.0,0.,24.0,0.,24.0
1986-01-26 19:13:47.570 ,2,1,0.,24.0,0.,24.0,0.,24.0,0.,24.0
1986-01-26 19:14:11.570 ,2,0,0.,24.0,0.,24.0,0.,24.0,0.,24.0
1986-01-26 19:14:35.570 ,1,1,0.,24.0,0.,24.0,0.,24.0,0.,24.0
1986-01-26 19:14:59.570 ,1,0,0.,24.0,0.,24.0,0.,24.0,0.,24.0
1986-01-26 19:15:23.570 ,0,1,1.,24.0,0.,24.0,0.,24.0,0.,24.0
1986-01-26 19:15:47.570 ,0,0,0.,24.0,0.,24.0,0.,24.0,0.,24.0
1986-01-26 19:16:11.570 ,0,1,0.,24.0,0.,24.0,0.,24.0,0.,24.0
1986-01-26 19:16:35.570 ,0,0,0.,24.0,1.,24.0,0.,24.0,0.,24.0
1986-01-26 19:16:59.570 ,1,1,0.,24.0,0.,24.0,0.,24.0,0.,24.0
1986-01-26 19:17:23.570 ,1,0,0.,24.0,0.,24.0,0.,24.0,0.,24.0
1986-01-26 19:17:47.570 ,2,1,0.,24.0,0.,24.0,0.,24.0,0.,24.0
1986-01-26 19:18:11.570 ,2,0,0.,24.0,0.,24.0,0.,24.0,0.,24.0
1986-01-26 19:18:35.570 ,3,1,0.,24.0,0.,24.0,0.,24.0,0.,24.0
1986-01-26 19:18:59.570 ,3,0,0.,24.0,0.,24.0,0.,24.0,0.,24.0
1986-01-26 19:19:23.570 ,4,1,0.,24.0,0.,24.0,0.,24.0,0.,24.0
1986-01-26 19:19:47.570 ,4,0,0.,24.0,0.,24.0,0.,24.0,0.,24.0
1986-01-26 19:20:11.570 ,5,1,0.,24.0,0.,24.0,0.,24.0,0.,24.0
1986-01-26 19:20:35.570 ,5,0,0.,24.0,0.,24.0,0.,24.0,0.,24.0
1986-01-26 19:20:59.570 ,6,1,0.,24.0,0.,24.0,0.,24.0,0.,24.0
1986-01-26 19:21:23.570 ,6,0,0.,24.0,0.,24.0,0.,24.0,0.,24.0
1986-01-26 19:21:47.570 ,7,1,7.,24.0,0.,24.0,0.,24.0,0.,24.0
1986-01-26 19:22:11.570 ,7,0,27.,24.0,0.,24.0,0.,24.0,0.,24.0
1986-01-26 19:22:35.570 ,7,1,30.,24.0,0.,24.0,0.,24.0,0.,24.0
1986-01-26 19:22:59.570 ,7,0,40.,24.0,1.,24.0,0.,24.0,0.,24.0
1986-01-26 19:23:23.570 ,6,1,15.,24.0,1.,24.0,0.,24.0,0.,24.0
1986-01-26 19:23:47.570 ,6,0,0.,24.0,0.,24.0,0.,24.0,0.,24.0
1986-01-26 19:24:11.570 ,5,1,0.,24.0,0.,24.0,0.,24.0,0.,24.0
1986-01-26 19:24:35.570 ,5,0,0.,24.0,0.,24.0,0.,24.0,0.,24.0
1986-01-26 19:24:59.570 ,4,1,1.,24.0,0.,24.0,0.,24.0,0.,24.0
1986-01-26 19:25:23.570 ,4,0,0.,24.0,0.,24.0,0.,24.0,0.,24.0
1986-01-26 19:25:47.570 ,3,1,0.,24.0,0.,24.0,0.,24.0,0.,24.0
1986-01-26 19:26:11.570 ,3,0,0.,24.0,0.,24.0,0.,24.0,0.,24.0
1986-01-26 19:26:35.570 ,2,1,0.,24.0,1.,24.0,0.,24.0,0.,24.0
1986-01-26 19:26:59.570 ,2,0,0.,24.0,0.,24.0,0.,24.0,0.,24.0
1986-01-26 19:27:23.570 ,1,1,0.,24.0,0.,24.0,0.,24.0,0.,24.0
1986-01-26 19:27:47.570 ,1,0,0.,24.0,0.,24.0,0.,24.0,0.,24.0
1986-01-26 19:28:11.570 ,0,1,0.,24.0,0.,24.0,0.,24.0,0.,24.0
1986-01-26 19:28:35.570 ,0,0,0.,24.0,0.,24.0,0.,24.0,0.,24.0
1986-01-26 19:28:59.570 ,0,1,0.,24.0,0.,24.0,0.,24.0,0.,24.0
1986-01-26 19:29:23.570 ,0,0,0.,24.0,0.,24.0,0.,24.0,0.,24.0
1986-01-26 19:29:47.570 ,1,1,0.,24.0,0.,24.0,0.,24.0,0.,24.0
1986-01-26 19:30:11.570 ,1,0,0.,24.0,0.,24.0,0.,24.0,0.,24.0
1986-01-26 19:30:35.570 ,2,1,0.,24.0,0.,24.0,0.,24.0,0.,24.0
1986-01-26 19:30:59.570 ,2,0,0.,24.0,0.,24.0,0.,24.0,0.,24.0
1986-01-26 19:31:23.570 ,3,1,0.,24.0,0.,24.0,0.,24.0,0.,24.0
1986-01-26 19:31:47.570 ,3,0,0.,24.0,0.,24.0,0.,24.0,0.,24.0
1986-01-26 19:32:11.570 ,4,1,0.,24.0,0.,24.0,0.,24.0,0.,24.0
1986-01-26 19:32:35.570 ,4,0,0.,24.0,0.,24.0,0.,24.0,0.,24.0
1986-01-26 19:32:59.570 ,5,1,0.,24.0,0.,24.0,0.,24.0,0.,24.0
1986-01-26 19:33:23.570 ,5,0,0.,24.0,0.,24.0,0.,24.0,0.,24.0
1986-01-26 19:33:47.570 ,6,1,0.,24.0,0.,24.0,0.,24.0,0.,24.0
1986-01-26 19:34:11.560 ,6,0,0.,24.0,0.,24.0,0.,24.0,0.,24.0
1986-01-26 19:34:35.560 ,7,1,9.,24.0,0.,24.0,0.,24.0,0.,24.0
1986-01-26 19:34:59.560 ,7,0,29.,24.0,0.,24.0,0.,24.0,0.,24.0
1986-01-26 19:35:23.560 ,7,1,24.,24.0,0.,24.0,0.,24.0,0.,24.0
1986-01-26 19:35:47.560 ,7,0,27.,24.0,0.,24.0,0.,24.0,0.,24.0
1986-01-26 19:36:11.560 ,6,1,23.,24.0,0.,24.0,0.,24.0,0.,24.0
1986-01-26 19:36:35.560 ,6,0,0.,24.0,0.,24.0,0.,24.0,0.,24.0
1986-01-26 19:36:59.560 ,5,1,0.,24.0,0.,24.0,0.,24.0,0.,24.0
1986-01-26 19:37:23.560 ,5,0,0.,24.0,0.,24.0,0.,24.0,0.,24.0
1986-01-26 19:37:47.560 ,4,1,0.,24.0,0.,24.0,0.,24.0,0.,24.0
1986-01-26 19:38:11.560 ,4,0,0.,24.0,0.,24.0,0.,24.0,0.,24.0
1986-01-26 19:38:35.560 ,3,1,0.,24.0,1.,24.0,0.,24.0,0.,24.0
1986-01-26 19:38:59.560 ,3,0,0.,24.0,0.,24.0,0.,24.0,0.,24.0
1986-01-26 19:39:23.560 ,2,1,0.,24.0,0.,24.0,0.,24.0,0.,24.0
1986-01-26 19:39:47.560 ,2,0,0.,24.0,0.,24.0,0.,24.0,0.,24.0
1986-01-26 19:40:11.560 ,1,1,0.,24.0,0.,24.0,0.,24.0,0.,24.0
1986-01-26 19:40:35.560 ,1,0,0.,24.0,0.,24.0,0.,24.0,0.,24.0
1986-01-26 19:40:59.560 ,0,1,0.,24.0,0.,24.0,0.,24.0,0.,24.0
1986-01-26 19:41:23.560 ,0,0,0.,24.0,0.,24.0,0.,24.0,0.,24.0
1986-01-26 19:41:47.560 ,0,1,0.,24.0,0.,24.0,0.,24.0,0.,24.0
1986-01-26 19:42:11.560 ,0,0,0.,24.0,0.,24.0,0.,24.0,0.,24.0
1986-01-26 19:42:35.560 ,1,1,0.,24.0,0.,24.0,0.,24.0,0.,24.0
1986-01-26 19:42:59.560 ,1,0,0.,24.0,0.,24.0,0.,24.0,0.,24.0
1986-01-26 19:43:23.560 ,2,1,0.,24.0,0.,24.0,0.,24.0,0.,24.0
1986-01-26 19:43:47.560 ,2,0,0.,24.0,0.,24.0,0.,24.0,0.,24.0
1986-01-26 19:44:11.560 ,3,1,1.,24.0,0.,24.0,0.,24.0,0.,24.0
1986-01-26 19:44:35.560 ,3,0,0.,24.0,0.,24.0,0.,24.0,0.,24.0
1986-01-26 19:44:59.560 ,4,1,0.,24.0,0.,24.0,0.,24.0,0.,24.0
1986-01-26 19:45:23.560 ,4,0,0.,24.0,0.,24.0,0.,24.0,0.,24.0
1986-01-26 19:45:47.560 ,5,1,1.,24.0,0.,24.0,0.,24.0,0.,24.0
1986-01-26 19:46:11.560 ,5,0,1.,24.0,0.,24.0,0.,24.0,0.,24.0
1986-01-26 19:46:35.560 ,6,1,1.,24.0,0.,24.0,0.,24.0,0.,24.0
1986-01-26 19:46:59.560 ,6,0,0.,24.0,0.,24.0,0.,24.0,0.,24.0
1986-01-26 19:47:23.560 ,7,1,8.,24.0,0.,24.0,0.,24.0,0.,24.0
1986-01-26 19:47:47.560 ,7,0,35.,24.0,0.,24.0,0.,24.0,0.,24.0
1986-01-26 19:48:11.560 ,7,1,34.,24.0,0.,24.0,0.,24.0,0.,24.0
1986-01-26 19:48:35.560 ,7,0,33.,24.0,0.,24.0,0.,24.0,0.,24.0
1986-01-26 19:48:59.560 ,6,1,20.,24.0,0.,24.0,0.,24.0,0.,24.0
1986-01-26 19:49:23.560 ,6,0,0.,24.0,0.,24.0,0.,24.0,0.,24.0
1986-01-26 19:49:47.560 ,5,1,0.,24.0,0.,24.0,0.,24.0,0.,24.0
1986-01-26 19:50:11.560 ,5,0,0.,24.0,0.,24.0,0.,24.0,0.,24.0
1986-01-26 19:50:35.560 ,4,1,0.,24.0,0.,24.0,0.,24.0,0.,24.0
1986-01-26 19:50:59.560 ,4,0,0.,24.0,0.,24.0,0.,24.0,0.,24.0
1986-01-26 19:51:23.560 ,3,1,0.,24.0,0.,24.0,0.,24.0,0.,24.0
1986-01-26 19:51:47.560 ,3,0,0.,24.0,0.,24.0,0.,24.0,0.,24.0
1986-01-26 19:52:11.560 ,2,1,0.,24.0,0.,24.0,0.,24.0,0.,24.0
1986-01-26 19:52:35.560 ,2,0,0.,24.0,0.,24.0,0.,24.0,0.,24.0
1986-01-26 19:52:59.560 ,1,1,1.,24.0,0.,24.0,0.,24.0,0.,24.0
1986-01-26 19:53:23.560 ,1,0,0.,24.0,0.,24.0,0.,24.0,0.,24.0
1986-01-26 19:53:47.560 ,0,1,1.,24.0,0.,24.0,0.,24.0,0.,24.0
1986-01-26 19:54:11.560 ,0,0,0.,24.0,0.,24.0,0.,24.0,0.,24.0
1986-01-26 19:54:35.560 ,0,1,0.,24.0,0.,24.0,0.,24.0,0.,24.0
1986-01-26 19:54:59.560 ,0,0,0.,24.0,0.,24.0,0.,24.0,0.,24.0
1986-01-26 19:55:23.560 ,1,1,0.,24.0,1.,24.0,0.,24.0,0.,24.0
1986-01-26 19:55:47.560 ,1,0,0.,24.0,0.,24.0,0.,24.0,0.,24.0
1986-01-26 19:56:11.560 ,2,1,0.,24.0,0.,24.0,0.,24.0,0.,24.0
1986-01-26 19:56:35.560 ,2,0,0.,24.0,0.,24.0,0.,24.0,0.,24.0
1986-01-26 19:56:59.560 ,3,1,0.,24.0,0.,24.0,0.,24.0,0.,24.0
1986-01-26 19:57:23.560 ,3,0,0.,24.0,0.,24.0,0.,24.0,0.,24.0
1986-01-26 19:57:47.560 ,4,1,0.,24.0,0.,24.0,0.,24.0,0.,24.0
1986-01-26 19:58:11.560 ,4,0,0.,24.0,0.,24.0,0.,24.0,0.,24.0
1986-01-26 19:58:35.560 ,5,1,0.,24.0,0.,24.0,0.,24.0,0.,24.0
1986-01-26 19:58:59.560 ,5,0,0.,24.0,0.,24.0,0.,24.0,0.,24.0
1986-01-26 19:59:23.560 ,6,1,0.,24.0,0.,24.0,0.,24.0,0.,24.0
1986-01-26 19:59:47.560 ,6,0,0.,24.0,0.,24.0,0.,24.0,0.,24.0
1986-01-26 20:00:11.560 ,7,1,9.,24.0,0.,24.0,0.,24.0,0.,24.0
1986-01-26 20:00:35.560 ,7,0,28.,24.0,1.,24.0,0.,24.0,0.,24.0
1986-01-26 20:00:59.560 ,7,1,30.,24.0,1.,24.0,0.,24.0,0.,24.0
1986-01-26 20:01:23.560 ,7,0,26.,24.0,0.,24.0,0.,24.0,0.,24.0
1986-01-26 20:01:47.560 ,6,1,26.,24.0,0.,24.0,0.,24.0,0.,24.0
1986-01-26 20:02:11.560 ,6,0,0.,24.0,0.,24.0,0.,24.0,0.,24.0
1986-01-26 20:02:35.560 ,5,1,0.,24.0,0.,24.0,0.,24.0,0.,24.0
1986-01-26 20:02:59.560 ,5,0,0.,24.0,0.,24.0,0.,24.0,0.,24.0
1986-01-26 20:03:23.560 ,4,1,0.,24.0,0.,24.0,0.,24.0,0.,24.0
1986-01-26 20:03:47.560 ,4,0,0.,24.0,0.,24.0,0.,24.0,0.,24.0
1986-01-26 20:04:11.560 ,3,1,1.,24.0,0.,24.0,0.,24.0,0.,24.0
1986-01-26 20:04:35.560 ,3,0,0.,24.0,0.,24.0,0.,24.0,0.,24.0
1986-01-26 20:04:59.560 ,2,1,0.,24.0,0.,24.0,0.,24.0,0.,24.0
1986-01-26 20:05:23.560 ,2,0,1.,24.0,0.,24.0,0.,24.0,0.,24.0
1986-01-26 20:05:47.560 ,1,1,0.,24.0,0.,24.0,0.,24.0,0.,24.0
1986-01-26 20:06:11.560 ,1,0,0.,24.0,0.,24.0,0.,24.0,0.,24.0
1986-01-26 20:06:35.560 ,0,1,0.,24.0,0.,24.0,0.,24.0,0.,24.0
1986-01-26 20:06:59.560 ,0,0,0.,24.0,0.,24.0,0.,24.0,0.,24.0
1986-01-26 20:07:23.560 ,0,1,0.,24.0,0.,24.0,0.,24.0,0.,24.0
1986-01-26 20:07:47.560 ,0,0,0.,24.0,0.,24.0,0.,24.0,0.,24.0
1986-01-26 20:08:11.560 ,1,1,0.,24.0,0.,24.0,0.,24.0,0.,24.0
1986-01-26 20:08:35.560 ,1,0,0.,24.0,0.,24.0,0.,24.0,0.,24.0
1986-01-26 20:08:59.560 ,2,1,0.,24.0,0.,24.0,0.,24.0,0.,24.0
1986-01-26 20:09:23.560 ,2,0,0.,24.0,0.,24.0,0.,24.0,0.,24.0
1986-01-26 20:09:47.560 ,3,1,0.,24.0,0.,24.0,0.,24.0,0.,24.0
1986-01-26 20:10:11.560 ,3,0,0.,24.0,0.,24.0,0.,24.0,0.,24.0
1986-01-26 20:10:35.560 ,4,1,0.,24.0,0.,24.0,0.,24.0,0.,24.0
1986-01-26 20:10:59.560 ,4,0,0.,24.0,1.,24.0,0.,24.0,0.,24.0
1986-01-26 20:11:23.560 ,5,1,0.,24.0,0.,24.0,0.,24.0,0.,24.0
1986-01-26 20:11:47.560 ,5,0,0.,24.0,0.,24.0,0.,24.0,0.,24.0
1986-01-26 20:12:11.560 ,6,1,0.,24.0,0.,24.0,0.,24.0,0.,24.0
1986-01-26 20:12:35.560 ,6,0,0.,24.0,0.,24.0,0.,24.0,0.,24.0
1986-01-26 20:12:59.560 ,7,1,7.,24.0,0.,24.0,0.,24.0,0.,24.0
1986-01-26 20:13:23.560 ,7,0,23.,24.0,0.,24.0,0.,24.0,0.,24.0
1986-01-26 20:13:47.560 ,7,1,33.,24.0,1.,24.0,0.,24.0,0.,24.0
1986-01-26 20:14:11.560 ,7,0,22.,24.0,0.,24.0,0.,24.0,0.,24.0
1986-01-26 20:14:35.560 ,6,1,23.,24.0,0.,24.0,0.,24.0,0.,24.0
1986-01-26 20:14:59.560 ,6,0,0.,24.0,0.,24.0,0.,24.0,0.,24.0
1986-01-26 20:15:23.560 ,5,1,0.,24.0,0.,24.0,0.,24.0,0.,24.0
1986-01-26 20:15:47.560 ,5,0,0.,24.0,0.,24.0,0.,24.0,0.,24.0
1986-01-26 20:16:11.560 ,4,1,0.,24.0,0.,24.0,0.,24.0,0.,24.0
1986-01-26 20:16:35.560 ,4,0,0.,24.0,0.,24.0,0.,24.0,0.,24.0
1986-01-26 20:16:59.560 ,3,1,0.,24.0,1.,24.0,0.,24.0,0.,24.0
1986-01-26 20:17:23.560 ,3,0,0.,24.0,0.,24.0,0.,24.0,0.,24.0
1986-01-26 20:17:47.560 ,2,1,0.,24.0,0.,24.0,0.,24.0,0.,24.0
1986-01-26 20:18:11.560 ,2,0,0.,24.0,0.,24.0,0.,24.0,0.,24.0
1986-01-26 20:18:35.560 ,1,1,0.,24.0,0.,24.0,0.,24.0,0.,24.0
1986-01-26 20:18:59.560 ,1,0,0.,24.0,0.,24.0,0.,24.0,0.,24.0
1986-01-26 20:19:23.560 ,0,1,0.,24.0,0.,24.0,0.,24.0,0.,24.0
1986-01-26 20:19:47.560 ,0,0,0.,24.0,0.,24.0,0.,24.0,0.,24.0
1986-01-26 20:20:11.560 ,0,1,0.,24.0,0.,24.0,0.,24.0,0.,24.0
1986-01-26 20:20:35.560 ,0,0,0.,24.0,0.,24.0,0.,24.0,0.,24.0
1986-01-26 20:20:59.560 ,1,1,0.,24.0,0.,24.0,0.,24.0,0.,24.0
1986-01-26 20:21:23.560 ,1,0,0.,24.0,0.,24.0,0.,24.0,0.,24.0
1986-01-26 20:21:47.560 ,2,1,0.,24.0,0.,24.0,0.,24.0,0.,24.0
1986-01-26 20:22:11.560 ,2,0,0.,24.0,0.,24.0,0.,24.0,0.,24.0
1986-01-26 20:22:35.560 ,3,1,0.,24.0,0.,24.0,0.,24.0,0.,24.0
1986-01-26 20:22:59.560 ,3,0,0.,24.0,0.,24.0,0.,24.0,0.,24.0
1986-01-26 20:23:23.560 ,4,1,0.,24.0,0.,24.0,0.,24.0,0.,24.0
1986-01-26 20:23:47.560 ,4,0,0.,24.0,0.,24.0,0.,24.0,0.,24.0
1986-01-26 20:24:11.560 ,5,1,0.,24.0,0.,24.0,0.,24.0,0.,24.0
1986-01-26 20:24:35.560 ,5,0,0.,24.0,0.,24.0,0.,24.0,0.,24.0
1986-01-26 20:24:59.560 ,6,1,0.,24.0,0.,24.0,0.,24.0,0.,24.0
1986-01-26 20:25:23.560 ,6,0,0.,24.0,0.,24.0,0.,24.0,0.,24.0
1986-01-26 20:25:47.560 ,7,1,4.,24.0,0.,24.0,0.,24.0,0.,24.0
1986-01-26 20:26:11.560 ,7,0,26.,24.0,0.,24.0,0.,24.0,0.,24.0
1986-01-26 20:26:35.560 ,7,1,27.,24.0,0.,24.0,0.,24.0,0.,24.0
1986-01-26 20:26:59.560 ,7,0,26.,24.0,0.,24.0,0.,24.0,0.,24.0
1986-01-26 20:27:23.560 ,6,1,26.,24.0,0.,24.0,0.,24.0,0.,24.0
1986-01-26 20:27:47.560 ,6,0,0.,24.0,0.,24.0,0.,24.0,0.,24.0
1986-01-26 20:28:11.560 ,5,1,0.,24.0,0.,24.0,0.,24.0,0.,24.0
1986-01-26 20:28:35.560 ,5,0,0.,24.0,0.,24.0,0.,24.0,0.,24.0
1986-01-26 20:28:59.560 ,4,1,0.,24.0,0.,24.0,0.,24.0,0.,24.0
1986-01-26 20:29:23.560 ,4,0,0.,24.0,0.,24.0,0.,24.0,0.,24.0
1986-01-26 20:29:47.560 ,3,1,0.,24.0,0.,24.0,0.,24.0,0.,24.0
1986-01-26 20:30:11.560 ,3,0,0.,24.0,0.,24.0,0.,24.0,0.,24.0
1986-01-26 20:30:35.560 ,2,1,0.,24.0,0.,24.0,0.,24.0,0.,24.0
1986-01-26 20:30:59.560 ,2,0,0.,24.0,0.,24.0,0.,24.0,0.,24.0
1986-01-26 20:31:23.560 ,1,1,0.,24.0,0.,24.0,0.,24.0,0.,24.0
1986-01-26 20:31:47.560 ,1,0,0.,24.0,0.,24.0,0.,24.0,0.,24.0
1986-01-26 20:32:11.560 ,0,1,0.,24.0,0.,24.0,0.,24.0,0.,24.0
1986-01-26 20:32:35.560 ,0,0,0.,24.0,0.,24.0,0.,24.0,0.,24.0
1986-01-26 20:32:59.560 ,0,1,0.,24.0,0.,24.0,0.,24.0,0.,24.0
1986-01-26 20:33:23.560 ,0,0,0.,24.0,0.,24.0,0.,24.0,0.,24.0
1986-01-26 20:33:47.560 ,1,1,0.,24.0,0.,24.0,0.,24.0,0.,24.0
1986-01-26 20:34:11.560 ,1,0,0.,24.0,0.,24.0,0.,24.0,0.,24.0